Sigonella, Italy

5:28 PM CEST on April 25, 2017 (GMT +0200)
Sigonella

Weather History for LICZ - March, 2013

Change the Weather History Date:

Monday, March 11, 2013

  Actual Average Record
Temperature  
Mean Temperature 57 °F -  
Max Temperature 66 °F 66 °F 66 °F (1999)
Min Temperature 48 °F 44 °F 32 °F (2011)
Degree Days  
Heating Degree Days 8    
Growing Degree Days 7 (Base 50)    
Moisture  
Dew Point 49 °F    
Average Humidity 78    
Maximum Humidity 100    
Minimum Humidity 39    
Precipitation  
Precipitation 0.00 in 0.04 in - ()
Sea Level Pressure  
Sea Level Pressure 29.73 in    
Wind  
Wind Speed 7 mph ()    
Max Wind Speed 18 mph    
Max Gust Speed -    
Visibility 6.8 miles    
Events      
Averages and records for this station are not official NWS values.
T = Trace of Precipitation, MM = Missing Value Source: Averaged Metar Reports

Daily Weather History Graph

Daily Weather History Graph

Search for Another Location

Airport or City:

Trip Planner

Search our weather history database for the weather conditions in past years. The results will help you decide how hot, cold, wet, or windy it might be!

Date:

Astronomy

Mar. 11, 2013 Rise Set
Actual Time 6:17 AM CET 6:03 PM CET
Civil Twilight 5:51 AM CET 6:29 PM CET
Nautical Twilight 5:21 AM CET 7:00 PM CET
Astronomical Twilight 4:50 AM CET 7:30 PM CET
Moon 5:41 AM CET (3/11) 5:56 PM CET (3/11)
Length of Visible Light 12h 38m
Length of Day
11h 46m
Waning Crescent, 0% of the Moon is Illuminated
Mar 11
Waning Crescent
Mar 11
New
Mar 19
First Quarter
Mar 27
Full
Apr 3
Last Quarter

Hourly Weather History & Observations

Time (CET) Temp. Dew Point Humidity Pressure Visibility Wind Dir Wind Speed Gust Speed Precip Events Conditions
12:55 AM 53.6 °F 53.6 °F 100% 29.74 in 6.2 mi West 4.6 mph - N/A   Mostly Cloudy
1:00 AM 53 °F 53 °F 100% 29.75 in 9 mi West 4.6 mph - -   Mostly Cloudy
1:55 AM 53.6 °F 53.6 °F 100% 29.74 in 6.2 mi West 10.4 mph - N/A   Scattered Clouds
2:55 AM 51.8 °F 51.8 °F 100% 29.74 in 6.2 mi WSW 3.5 mph - N/A   Scattered Clouds
3:55 AM 53.6 °F 48.2 °F 82% 29.71 in 6.2 mi West 6.9 mph - N/A   Scattered Clouds
4:00 AM 54 °F 47 °F 71% 29.73 in 10 mi West 6.9 mph - -   Partly Cloudy
4:55 AM 50.0 °F 46.4 °F 87% 29.71 in 6.2 mi SW 5.8 mph - N/A   Scattered Clouds
5:55 AM 50.0 °F 46.4 °F 87% 29.71 in 6.2 mi West 3.5 mph - N/A   Partly Cloudy
7:00 AM 50 °F 45 °F 76% 29.75 in 12 mi NW 2.3 mph - -   Partly Cloudy
7:55 AM 53.6 °F 44.6 °F 72% 29.74 in 6.2 mi West 6.9 mph - N/A   Scattered Clouds
8:55 AM 59.0 °F 44.6 °F 59% 29.71 in 6.2 mi West 10.4 mph - N/A   Mostly Cloudy
9:55 AM 59.0 °F 44.6 °F 59% 29.74 in 6.2 mi West 11.5 mph - N/A   Mostly Cloudy
10:00 AM 59 °F 45 °F 50% 29.75 in 7 mi West 11.5 mph - -   Partly Cloudy
10:55 AM 59.0 °F 48.2 °F 67% 29.74 in 6.2 mi West 18.4 mph - N/A   Mostly Cloudy
11:55 AM 59.0 °F 51.8 °F 77% 29.74 in 6.2 mi West 17.3 mph - N/A   Mostly Cloudy
12:55 PM 59.0 °F 51.8 °F 77% 29.74 in 6.2 mi West 12.7 mph - N/A   Mostly Cloudy
1:00 PM 60 °F 53 °F 69% 29.75 in 7 mi West 12.7 mph - -   Partly Cloudy
1:55 PM 62.6 °F 51.8 °F 68% 29.71 in 6.2 mi West 15.0 mph - N/A   Mostly Cloudy
2:55 PM 64.4 °F 48.2 °F 56% 29.68 in 6.2 mi WNW 13.8 mph - N/A   Mostly Cloudy
3:55 PM 64.4 °F 46.4 °F 52% 29.68 in 6.2 mi NW 10.4 mph - N/A   Scattered Clouds
4:00 PM 65 °F 46 °F 39% 29.69 in 9 mi NW 10.4 mph - -   Partly Cloudy
4:55 PM 64.4 °F 44.6 °F 49% 29.68 in 6.2 mi West 9.2 mph - N/A   Scattered Clouds
5:55 PM 59.0 °F 50.0 °F 72% 29.68 in 6.2 mi West 10.4 mph - N/A   Scattered Clouds
6:55 PM 53.6 °F 51.8 °F 94% 29.71 in 6.2 mi WSW 5.8 mph - N/A   Partly Cloudy
7:00 PM 54 °F 51 °F 86% 29.72 in 9 mi WSW 5.8 mph - -   Scattered Clouds
7:55 PM 53.6 °F 50.0 °F 88% 29.71 in 6.2 mi West 11.5 mph - N/A   Partly Cloudy
8:55 PM 51.8 °F 51.8 °F 100% 29.74 in 6.2 mi West 9.2 mph - N/A   Partly Cloudy
9:55 PM 50.0 °F 50.0 °F 100% 29.77 in 6.2 mi WSW 9.2 mph - N/A   Scattered Clouds
10:00 PM 51 °F 51 °F 99% 29.77 in 6 mi WSW 9.2 mph - -   Scattered Clouds
10:55 PM 50.0 °F 50.0 °F 100% 29.77 in 6.2 mi WSW 5.8 mph - N/A   Scattered Clouds
11:55 PM 50.0 °F 44.6 °F 82% 29.74 in 6.2 mi West 12.7 mph - N/A   Scattered Clouds